Location: Heidgraben
(53.7081°N, 9.6576°E)
Time: 07:46:49
(UTC+00:00)

SL-16 R/B - Pass Details

Date: 05 July 2020
Orbit: 840 x 850 km, 71.0° (Epoch: 14 August)

Event Time Altitude Azimuth Distance (km) Brightness Sun altitude
Exits shadow 21:18:43 - 124° (ESE) 2,671 4.3 -8.8°
Reaches altitude 10° 21:20:05 10° 111° (ESE) 2,469 4.2 -8.9°
Maximum altitude 21:21:45 11° 94° (E) 2,378 4.2 -9.0°
Drops below altitude 10° 21:23:25 10° 77° (ENE) 2,476 4.5 -9.1°
Sets 21:27:49 0° 45° (NE) 3,421 5.6 -9.5°
